Alturas, CA

10:50 AM PDT on October 23, 2017 (GMT -0700)
Alturas Municipal

Weather History for KAAT - February, 2014

Change the Weather History Date:

Wednesday, February 12, 2014

  Actual Average Record
Temperature  
Mean Temperature 45 °F 33 °F  
Max Temperature 51 °F 46 °F 75 °F (1934)
Min Temperature 38 °F 21 °F -10 °F (1959)
Degree Days  
Heating Degree Days 20 32  
Month to date heating degree days 380 390  
Since 1 July heating degree days 4365 4388  
Cooling Degree Days 0 0  
Month to date cooling degree days 0 0  
Year to date cooling degree days 0 0  
Moisture  
Dew Point 36 °F    
Average Humidity 69    
Maximum Humidity 89    
Minimum Humidity 49    
Precipitation  
Precipitation 0.23 in 0.05 in 0.75 in (1949)
Month to date precipitation 0.79 0.58  
Year to date precipitation 0.91 2.23  
Sea Level Pressure  
Sea Level Pressure 30.11 in    
Wind  
Wind Speed 9 mph (SW)    
Max Wind Speed 24 mph    
Max Gust Speed 32 mph    
Visibility 9 miles    
Events Rain    
T = Trace of Precipitation, MM = Missing Value Source: NWS Daily Summary

Daily Weather History Graph

Daily Weather History Graph

Search for Another Location

Airport or City:

Trip Planner

Search our weather history database for the weather conditions in past years. The results will help you decide how hot, cold, wet, or windy it might be!

Date:

Astronomy

Feb. 12, 2014 Rise Set
Actual Time 7:01 AM PST 5:32 PM PST
Civil Twilight 6:32 AM PST 6:01 PM PST
Nautical Twilight 6:00 AM PST 6:33 PM PST
Astronomical Twilight 5:27 AM PST 7:05 PM PST
Moon 3:50 PM PST (2/12) 5:21 AM PST (2/12)
Length of Visible Light 11h 28m
Length of Day
10h 31m
Waxing Gibbous, 96% of the Moon is Illuminated
Feb 12
Waxing Gibbous
Feb 14
Full
Feb 22
Last Quarter
Mar 1
New
Mar 8
First Quarter

Hourly Weather History & Observations

Time (PST) Temp. Windchill Dew Point Humidity Pressure Visibility Wind Dir Wind Speed Gust Speed Precip Events Conditions
12:55 AM 41.0 °F 34.3 °F 32.0 °F 70% 30.12 in 10.0 mi SSW 11.5 mph - N/A   Overcast
1:55 AM 41.0 °F 36.4 °F 30.9 °F 67% 30.12 in 10.0 mi SSW 6.9 mph - N/A   Overcast
2:55 AM 42.1 °F 38.4 °F 28.0 °F 58% 30.09 in 10.0 mi SSW 5.8 mph - N/A   Overcast
3:55 AM 39.9 °F 35.8 °F 30.9 °F 70% 30.09 in 10.0 mi WSW 5.8 mph - N/A   Overcast
4:55 AM 37.9 °F - 30.0 °F 73% 30.09 in 10.0 mi Calm Calm - N/A   Mostly Cloudy
5:55 AM 37.9 °F 35.5 °F 30.9 °F 76% 30.09 in 10.0 mi SSE 3.5 mph - N/A   Mostly Cloudy
6:55 AM 43.0 °F 36.0 °F 25.0 °F 49% 30.11 in 10.0 mi SSW 13.8 mph - N/A   Mostly Cloudy
7:55 AM 44.1 °F 41.5 °F 30.9 °F 60% 30.11 in 10.0 mi SSW 4.6 mph - N/A   Overcast
8:55 AM 46.0 °F 40.6 °F 32.0 °F 58% 30.11 in 10.0 mi SSW 11.5 mph 19.6 mph N/A   Mostly Cloudy
9:55 AM 48.0 °F - 35.1 °F 61% 30.11 in 10.0 mi SW 17.3 mph 21.9 mph N/A   Mostly Cloudy
10:55 AM 50.0 °F - 36.0 °F 59% 30.10 in 10.0 mi SW 17.3 mph 23.0 mph N/A   Mostly Cloudy
11:55 AM 48.9 °F - 36.0 °F 61% 30.09 in 10.0 mi WSW 19.6 mph - N/A   Overcast
12:55 PM 50.0 °F - 37.0 °F 61% 30.07 in 10.0 mi West 12.7 mph - N/A   Overcast
1:55 PM 46.0 °F 38.8 °F 37.9 °F 73% 30.09 in 10.0 mi West 18.4 mph - 0.00 in Rain Light Rain
2:55 PM 45.0 °F 37.6 °F 39.0 °F 80% 30.10 in 10.0 mi West 17.3 mph 24.2 mph 0.01 in Rain Light Rain
3:55 PM 42.1 °F 34.5 °F 39.0 °F 89% 30.11 in 6.0 mi West 15.0 mph - 0.06 in Rain Light Rain
4:37 PM 43.0 °F 37.7 °F 39.9 °F 89% 30.11 in 10.0 mi West 9.2 mph - 0.01 in   Overcast
4:55 PM 42.1 °F 37.1 °F 39.9 °F 92% 30.11 in 10.0 mi West 8.1 mph - 0.01 in Rain Light Rain
5:55 PM 42.1 °F - 39.9 °F 92% 30.12 in 10.0 mi Calm Calm - 0.00 in Rain Light Rain
6:55 PM 42.1 °F - 39.9 °F 92% 30.11 in 8.0 mi Calm Calm - 0.04 in Rain Light Rain
7:11 PM 42.1 °F 39.2 °F 39.9 °F 92% 30.12 in 7.0 mi WNW 4.6 mph - 0.02 in Rain Light Rain
7:20 PM 42.1 °F 39.2 °F 39.9 °F 92% 30.13 in 9.0 mi West 4.6 mph - 0.02 in Rain Light Rain
7:34 PM 42.1 °F 40.2 °F 39.9 °F 92% 30.13 in 5.0 mi West 3.5 mph - 0.04 in Rain Light Rain
7:52 PM 42.8 °F 40.1 °F 39.2 °F 87% 30.12 in 6.0 mi SW 4.6 mph - 0.06 in Rain Light Rain
7:55 PM 42.1 °F 40.2 °F 39.9 °F 92% 30.12 in 8.0 mi SSW 3.5 mph - 0.06 in Rain Light Rain
8:32 PM 42.1 °F 40.2 °F 39.9 °F 92% 30.12 in 10.0 mi SSW 3.5 mph - 0.01 in Rain Light Rain
8:55 PM 42.1 °F 40.2 °F 39.9 °F 92% 30.11 in 10.0 mi SW 3.5 mph - 0.03 in Rain Light Rain
9:06 PM 42.1 °F 39.2 °F 39.9 °F 92% 30.12 in 10.0 mi WSW 4.6 mph - 0.01 in Rain Light Rain
9:55 PM 42.1 °F 40.2 °F 39.9 °F 92% 30.12 in 10.0 mi SW 3.5 mph - 0.02 in Rain Light Rain
10:55 PM 41.0 °F - 39.9 °F 96% 30.10 in 10.0 mi Calm Calm - 0.00 in   Mostly Cloudy
11:55 PM 41.0 °F 38.0 °F 39.9 °F 96% 30.11 in 9.0 mi SW 4.6 mph - N/A   Overcast